#datint,netname,site,siteID,timestamp,IntT_Avg,BattV_Min,AirT2_Avg,AirT_Avg,AirT_Max,AirT_Min,SolarW_Avg,SolarMJ,WindS_Max,WindS_Avg,WindD_Avg,WindD_SD,EA_Avg,RH_Max,RH_Min,Td_Avg,Td_Max,Td_Min,ETo,ETr,SoilT4_Avg,SoilT8_Avg,SoilVWC8_Avg,wetstate_Avg,wetT_Avg,precip_accum,Precip_WPG,Precip_TB,Rso
hly,AgWx,beryljct,423,30OCT2019:00:00:00,13.7,12.8,12.4,12.0,13.0,10.8,0,0.0001,8.4,3.7,252,23,0.156,62,58,0.7,1.2,0.1,-0.00001,0.00000,37.3,43.9,8,.,.,5.80,0.00,0.00,1E-6
hly,AgWx,beryljct,423,30OCT2019:01:00:00,12.0,12.76,11.0,10.9,12.3,8.9,0,0.0001,10.2,6.1,41,7.4,0.154,66,58,0.4,1.4,-0.7,0.00013,0.00018,36.4,43.6,8,.,.,5.80,0.00,0.00,1E-6
hly,AgWx,beryljct,423,30OCT2019:02:00:00,10.7,12.71,9.4,9.1,9.5,8.0,0,0.0002,8.8,6.3,42,5.5,0.151,66,65,-0.0,0.4,-0.9,0.00011,0.00015,35.7,43.3,8,.,.,5.80,0.00,0.00,1E-6
hly,AgWx,beryljct,423,30OCT2019:03:00:00,9.5,12.66,8.5,8.1,9.5,6.9,0,0.0001,6.0,3.9,19,8.1,0.148,69,65,-0.5,0.6,-1.5,-0.00002,0.00000,35.0,43.0,8,.,.,5.80,0.00,0.00,1E-6
hly,AgWx,beryljct,423,30OCT2019:04:00:00,8.3,12.62,7.7,7.5,8.4,6.6,0,0.0001,7.0,4.1,257,11,0.145,70,65,-0.9,0.3,-2.0,-0.00001,0.00001,34.4,42.7,8,.,.,5.80,0.00,0.00,1E-6
hly,AgWx,beryljct,423,30OCT2019:05:00:00,7.3,12.58,5.8,6.0,7.4,4.3,0,0.0001,8.8,5.0,341,11,0.139,73,67,-1.8,-0.7,-2.6,0.00002,0.00004,33.8,42.3,8,.,.,5.80,0.00,0.00,0.0000379851
hly,AgWx,beryljct,423,30OCT2019:06:00:00,6.1,12.54,6.8,5.9,7.0,4.3,0,0.0004,4.7,2.7,315,18,0.141,73,69,-1.6,-1.0,-2.6,0.00016,0.00030,33.2,42.0,8,.,.,5.80,0.00,0.00,0.105583027
hly,AgWx,beryljct,423,30OCT2019:07:00:00,6.4,12.56,6.4,6.1,7.0,5.1,47,0.1694,8.8,4.4,327,18,0.141,73,68,-1.4,-0.5,-2.7,0.00064,0.00092,32.7,41.7,8,.,.,5.80,0.00,0.00,0.6768467
hly,AgWx,beryljct,423,30OCT2019:08:00:00,12.2,14.93,13.1,11.9,14.8,6.9,214,0.7718,13.0,8.0,20,11,0.164,71,54,1.5,2.2,-0.9,0.00205,0.00274,32.1,41.4,8,.,.,5.80,0.00,0.00,1.3480681
hly,AgWx,beryljct,423,30OCT2019:09:00:00,19.9,14.91,19.0,17.4,20.8,14.5,390,1.4041,14.3,8.2,33,14,0.166,54,44,1.6,2.8,0.3,0.00403,0.00521,31.8,41.1,8,.,.,5.80,0.00,0.00,1.8916869
hly,AgWx,beryljct,423,30OCT2019:10:00:00,26.3,14.39,24.2,23.1,25.1,20.9,535,1.9248,18.0,11.9,49,14,0.176,45,39,3.3,4.3,2.2,0.00615,0.00812,31.9,40.8,8,.,.,5.80,0.00,0.00,2.2415512
hly,AgWx,beryljct,423,30OCT2019:11:00:00,29.8,14.35,26.2,25.7,27.2,24.2,628,2.2619,20.1,12.7,59,12,0.174,40,35,3.2,4.5,1.6,0.00752,0.00991,32.4,40.5,8,.,.,5.79,0.00,0.00,2.3718413
hly,AgWx,beryljct,423,30OCT2019:12:00:00,31.9,14.31,28.5,28.2,29.5,26.2,662,2.3833,20.7,14.9,51,11,0.171,36,31,2.7,4.1,1.9,0.00850,0.01146,33.1,40.2,8,.,.,5.78,0.00,0.00,2.2697676
hly,AgWx,beryljct,423,30OCT2019:13:00:00,34.0,14.22,31.5,30.2,32.8,28.9,633,2.2785,20.9,14.1,49,11,0.174,33,27,2.7,4.2,1.4,0.00887,0.01204,34.5,40.1,8,.,.,5.78,0.00,0.00,1.9419019
hly,AgWx,beryljct,423,30OCT2019:14:00:00,36.4,14.19,32.7,32.5,33.8,31.3,538,1.9352,19.7,14.4,48,10,0.155,29,22,1.1,3.6,-2.4,0.00876,0.01233,36.1,40.0,8,.,.,5.77,0.00,0.00,1.4203775
hly,AgWx,beryljct,423,30OCT2019:15:00:00,37.8,14.16,33.4,33.3,34.0,32.6,406,1.4612,18.4,12.9,56,11,0.143,25,20,-1.0,1.5,-3.3,0.00762,0.01115,37.5,40.1,8,.,.,5.77,0.00,0.00,0.7588719
hly,AgWx,beryljct,423,30OCT2019:16:00:00,37.1,14.12,33.1,32.9,33.7,32.0,233,0.8403,16.2,11.4,71,9.7,0.150,25,22,-0.3,1.0,-2.0,0.00479,0.00728,38.5,40.2,8,.,.,5.76,0.00,0.00,0.147483122
hly,AgWx,beryljct,423,30OCT2019:17:00:00,33.4,13.19,29.6,29.9,32.0,27.0,59,0.2140,13.3,7.8,62,9.1,0.146,30,24,-0.8,0.2,-1.5,0.00127,0.00153,38.9,40.5,8,.,.,5.77,0.00,0.00,0.0009218148
hly,AgWx,beryljct,423,30OCT2019:18:00:00,25.7,13.03,24.9,25.3,27.0,22.8,0,0.0015,7.3,2.5,74,14,0.140,34,29,-1.6,-0.5,-2.6,0.00001,0.00008,38.6,40.7,8,.,.,5.77,0.00,0.00,1E-6
hly,AgWx,beryljct,423,30OCT2019:19:00:00,22.6,12.99,23.1,23.0,24.1,21.9,0,0.0002,8.8,5.7,83,7.4,0.137,39,29,-2.5,1.0,-4.2,0.00059,0.00076,37.8,40.9,8,.,.,5.77,0.00,0.00,1E-6
hly,AgWx,beryljct,423,30OCT2019:20:00:00,20.9,12.94,20.9,20.7,22.1,19.9,0,0.0002,7.2,5.0,66,7.9,0.158,43,39,0.8,1.1,0.5,0.00037,0.00049,36.8,41.0,8,.,.,5.77,0.00,0.00,1E-6
hly,AgWx,beryljct,423,30OCT2019:21:00:00,18.6,12.9,19.1,18.8,20.1,16.6,0,0.0001,6.6,2.5,171,23,0.153,46,42,0.0,0.8,-1.1,-0.00004,-0.00001,35.9,41.0,8,.,.,5.77,0.00,0.00,1E-6
hly,AgWx,beryljct,423,30OCT2019:22:00:00,16.9,12.85,18.5,17.8,19.2,16.1,0,0.0001,4.3,2.3,304,34,0.151,48,43,-0.1,0.9,-1.0,-0.00006,-0.00004,35.1,41.0,8,.,.,5.77,0.00,0.00,1E-6
hly,AgWx,beryljct,423,30OCT2019:23:00:00,16.0,12.85,16.2,17.6,18.6,16.8,0,0.0000,4.2,2.4,19,35,0.149,46,44,-0.3,0.2,-0.7,-0.00001,0.00000,34.7,40.9,8,.,.,5.77,0.00,0.00,2.5E-7
hly,AgWx,bigpiney,439,30OCT2019:00:00:00,-9.9,12.27,-16.1,-15.0,-9.5,-20.4,0,0.0001,5.2,2.5,230,8.7,0.054,83,78,-19.5,-13.2,-25.1,-0.00011,-0.00015,35.2,37.7,44,0,0.0,5.47,0.00,0.00,1E-6
hly,AgWx,bigpiney,439,30OCT2019:01:00:00,-12.9,12.21,-19.7,-19.5,-17.5,-23.1,0,0.0001,5.5,3.7,231,8.7,0.044,80,76,-24.2,-21.9,-28.1,-0.00003,-0.00003,35.2,37.7,44,0,0.0,5.47,0.00,0.00,1E-6
hly,AgWx,bigpiney,439,30OCT2019:02:00:00,-15.0,12.14,-19.3,-20.0,-18.0,-23.3,0,0.0001,5.5,2.4,209,6.8,0.045,80,76,-24.6,-22.4,-28.3,-0.00007,-0.00010,35.1,37.7,44,0,0.0,5.47,0.00,0.00,1E-6
hly,AgWx,bigpiney,439,30OCT2019:03:00:00,-15.9,12.05,-16.7,-17.6,-15.6,-20.8,0,0.0001,3.0,1.3,253,13,0.052,82,79,-21.7,-19.5,-25.4,-0.00011,-0.00015,35.1,37.6,44,0,0.0,5.47,0.00,0.00,1E-6
hly,AgWx,bigpiney,439,30OCT2019:04:00:00,-17.2,11.94,-20.3,-19.2,-14.9,-22.1,0,0.0001,4.6,3.4,235,5.1,0.046,82,76,-23.8,-18.9,-27.3,-0.00004,-0.00004,35.1,37.6,44,0,0.0,5.47,0.00,0.00,1E-6
hly,AgWx,bigpiney,439,30OCT2019:05:00:00,-17.8,11.88,-19.1,-20.0,-18.2,-22.0,0,0.0001,3.1,1.0,159,6.8,0.045,80,76,-24.9,-22.6,-27.3,-0.00011,-0.00016,35.1,37.6,44,0,0.0,5.47,0.00,0.00,1E-6
hly,AgWx,bigpiney,439,30OCT2019:06:00:00,-17.4,11.85,-17.4,-18.4,-17.2,-19.7,0,0.0010,2.7,1.5,289,13,0.049,79,77,-23.2,-21.7,-24.8,-0.00009,-0.00011,35.1,37.6,44,0,0.0,5.47,0.00,0.00,0.0005121241
hly,AgWx,bigpiney,439,30OCT2019:07:00:00,-17.0,11.94,-16.7,-18.2,-15.1,-19.8,61,0.2189,3.2,1.4,264,10,0.049,79,76,-23.0,-19.7,-25.1,0.00000,0.00002,35.1,37.6,44,0,0.0,5.47,0.00,0.00,0.124499503
hly,AgWx,bigpiney,439,30OCT2019:08:00:00,-10.3,14.96,-12.4,-13.3,-11.5,-15.0,216,0.7768,2.7,0.7,55,6.2,0.064,79,78,-18.0,-16.3,-19.6,0.00061,0.00067,35.1,37.6,44,0,0.0,5.47,0.00,0.00,0.6765405
hly,AgWx,bigpiney,439,30OCT2019:09:00:00,0.6,14.97,-7.0,-8.4,-4.0,-12.3,379,1.3660,2.3,0.5,65,13,0.084,80,78,-13.2,-8.7,-17.3,0.00167,0.00179,35.0,37.6,44,0,0.0,5.47,0.00,0.00,1.2787863
hly,AgWx,bigpiney,439,30OCT2019:10:00:00,10.9,14.61,0.6,-0.5,4.5,-4.7,506,1.8206,2.9,0.9,150,33,0.125,82,77,-5.4,-0.7,-9.5,0.00308,0.00331,35.0,37.6,44,0,0.0,5.47,0.00,0.00,1.7403346
hly,AgWx,bigpiney,439,30OCT2019:11:00:00,17.9,14.5,9.1,8.1,11.6,4.3,583,2.0995,7.0,3.0,134,25,0.142,78,55,-1.1,0.8,-2.5,0.00444,0.00494,35.0,37.5,44,0,0.0,5.47,0.00,0.00,2.0164401
hly,AgWx,bigpiney,439,30OCT2019:12:00:00,20.7,14.45,12.8,12.5,15.0,11.5,600,2.1605,6.8,3.8,153,22,0.141,56,49,-1.7,1.1,-3.2,0.00522,0.00596,35.0,37.5,44,0,0.0,5.47,0.00,0.00,2.0879175
hly,AgWx,bigpiney,439,30OCT2019:13:00:00,23.9,14.35,16.7,15.9,17.4,14.2,558,2.0084,6.5,3.2,164,24,0.161,55,47,0.9,2.6,-0.8,0.00541,0.00617,35.0,37.5,44,0,0.0,5.47,0.00,0.00,1.9380953
hly,AgWx,bigpiney,439,30OCT2019:14:00:00,27.4,14.3,19.4,19.0,20.4,17.4,459,1.6539,6.7,3.4,165,21,0.163,49,40,1.4,3.4,-0.3,0.00482,0.00568,35.0,37.5,44,0,0.0,5.47,0.00,0.00,1.5877476
hly,AgWx,bigpiney,439,30OCT2019:15:00:00,28.9,14.28,21.1,21.0,21.6,20.3,317,1.1427,6.1,3.5,173,19,0.158,45,38,1.2,3.0,-0.7,0.00344,0.00428,35.0,37.5,44,0,0.0,5.47,0.00,0.00,1.0676153
hly,AgWx,bigpiney,439,30OCT2019:16:00:00,27.7,14.36,19.6,20.2,22.4,17.0,154,0.5543,6.0,3.3,205,28,0.174,58,33,2.1,4.9,-2.5,0.00141,0.00205,34.9,37.5,44,0,0.0,5.47,0.00,0.00,0.44704869
hly,AgWx,bigpiney,439,30OCT2019:17:00:00,21.6,12.7,16.2,17.1,19.3,14.4,20,0.0714,13.0,6.0,290,15,0.136,54,37,-1.4,3.9,-4.3,0.00048,0.00097,34.9,37.5,44,0,0.0,5.47,0.00,0.00,0.0379345541
hly,AgWx,bigpiney,439,30OCT2019:18:00:00,15.4,12.61,10.2,11.8,14.3,7.5,0,0.0001,8.8,5.3,285,15,0.122,54,43,-4.6,-1.6,-7.0,0.00022,0.00030,34.9,37.4,44,0,0.0,5.47,0.00,0.00,1E-6
hly,AgWx,bigpiney,439,30OCT2019:19:00:00,10.8,12.53,5.2,5.2,10.2,0.5,0,0.0001,9.9,6.1,234,9.1,0.117,72,48,-5.5,-3.6,-8.1,0.00011,0.00015,34.9,37.4,44,0,0.0,5.47,0.00,0.00,1E-6
hly,AgWx,bigpiney,439,30OCT2019:20:00:00,6.6,12.47,2.9,1.9,4.5,-0.0,0,0.0001,7.0,3.5,234,16,0.120,74,67,-5.3,-3.5,-6.6,-0.00008,-0.00008,34.9,37.4,44,0,0.0,5.47,0.00,0.00,1E-6
hly,AgWx,bigpiney,439,30OCT2019:21:00:00,4.1,12.42,2.5,1.1,4.1,-0.8,0,0.0001,6.6,3.7,223,13,0.116,74,62,-6.2,-3.4,-10.0,-0.00005,-0.00005,34.9,37.4,44,0,0.0,5.47,0.00,0.00,1E-6
hly,AgWx,bigpiney,439,30OCT2019:22:00:00,2.7,12.37,-0.8,-0.5,3.3,-3.8,0,0.0001,7.5,4.0,219,12,0.104,78,64,-7.5,-5.2,-10.2,-0.00004,-0.00003,34.9,37.4,44,0,0.0,5.47,0.00,0.00,1E-6
hly,AgWx,bigpiney,439,30OCT2019:23:00:00,2.0,12.35,-0.7,-1.1,-0.2,-1.6,0,0.0000,5.9,4.2,220,7.6,0.111,76,73,-7.1,-5.9,-8.2,-0.00001,-0.00001,34.9,37.4,44,0,0.0,5.47,0.00,0.00,2.5E-7
hly,AgWx,blo,425,30OCT2019:00:00:00,0.2,12.77,1.3,0.0,2.6,-1.6,0,0.0001,6.7,3.7,238,12,0.120,82,78,-4.7,-2.2,-6.6,-0.00005,-0.00005,36.1,38.3,19,100,4.0,11.92,0.00,0.00,1E-6
hly,AgWx,blo,425,30OCT2019:01:00:00,0.3,12.73,1.2,0.9,2.9,-1.0,0,0.0001,6.5,3.6,240,9.3,0.124,81,77,-4.1,-1.9,-6.0,-0.00005,-0.00005,36.1,38.3,19,100,4.7,11.92,0.00,0.00,1E-6
hly,AgWx,blo,425,30OCT2019:02:00:00,0.2,12.67,0.7,0.1,0.9,-0.7,0,0.0001,5.9,3.8,240,9.2,0.119,80,78,-4.9,-4.0,-5.8,-0.00004,-0.00003,36.1,38.3,19,100,4.4,11.91,0.00,0.00,1E-6
hly,AgWx,blo,425,30OCT2019:03:00:00,1.2,12.62,4.2,2.3,6.2,-0.7,0,0.0001,7.3,4.2,240,17,0.145,86,79,-2.1,2.8,-5.7,-0.00005,-0.00004,36.1,38.3,19,100,8.1,11.92,0.00,0.00,1E-6
hly,AgWx,blo,425,30OCT2019:04:00:00,5.5,12.55,7.5,6.5,6.9,6.1,0,0.0001,7.1,3.6,282,12,0.177,87,85,3.2,3.7,2.6,-0.00010,-0.00011,36.0,38.3,19,100,12.7,11.92,0.00,0.00,1E-6
hly,AgWx,blo,425,30OCT2019:05:00:00,7.8,12.53,7.3,6.5,6.8,6.1,0,0.0001,7.4,4.4,284,14,0.179,88,85,3.4,4.0,2.9,-0.00009,-0.00009,36.0,38.3,19,100,12.8,11.91,0.00,0.00,1E-6
hly,AgWx,blo,425,30OCT2019:06:00:00,8.6,12.52,8.0,6.9,7.3,6.6,0,0.0002,7.2,2.5,293,23,0.186,90,87,4.2,4.9,3.5,-0.00018,-0.00022,36.0,38.2,19,100,13.8,11.91,0.00,0.00,0.0001095612
hly,AgWx,blo,425,30OCT2019:07:00:00,9.1,12.53,7.7,6.9,7.3,6.6,17,0.0620,5.3,1.8,314,31,0.183,90,86,4.1,4.9,3.3,-0.00015,-0.00013,36.0,38.2,19,100,15.3,11.91,0.00,0.00,0.104169006
hly,AgWx,blo,425,30OCT2019:08:00:00,10.1,12.7,8.5,7.2,9.5,6.0,159,0.5726,5.0,1.9,260,21,0.177,86,78,3.2,4.2,2.5,0.00092,0.00105,36.0,38.2,19,100,24.2,11.91,0.00,0.00,0.63410703
hly,AgWx,blo,425,30OCT2019:09:00:00,17.4,14.95,10.3,9.9,10.8,8.5,374,1.3452,5.1,2.0,136,23,0.185,80,74,4.2,5.5,2.7,0.00272,0.00300,36.0,38.2,19,87,40.0,11.91,0.00,0.00,1.2438447
hly,AgWx,blo,425,30OCT2019:10:00:00,22.6,14.54,13.2,11.8,13.9,10.2,503,1.8108,5.7,2.7,84,25,0.195,78,70,5.0,6.7,4.1,0.00410,0.00453,36.0,38.2,19,70,40.9,11.91,0.00,0.00,1.7256565
hly,AgWx,blo,425,30OCT2019:11:00:00,24.5,14.47,14.1,13.7,14.8,12.4,577,2.0788,7.0,3.5,83,24,0.213,79,70,7.2,9.6,5.0,0.00492,0.00544,36.1,38.1,19,66,40.3,11.91,0.00,0.00,2.0209114
hly,AgWx,blo,425,30OCT2019:12:00:00,24.5,14.44,14.7,14.7,16.5,13.3,514,1.8499,7.0,3.5,87,23,0.245,85,78,10.2,12.3,8.0,0.00458,0.00502,36.1,38.1,19,66,38.8,11.91,0.00,0.00,2.1037046
hly,AgWx,blo,425,30OCT2019:13:00:00,27.5,14.35,16.9,16.4,17.7,15.1,638,2.2958,8.1,4.2,64,24,0.257,84,79,11.6,13.5,9.9,0.00568,0.00623,36.2,38.1,19,56,40.6,11.91,0.00,0.00,1.9720027
hly,AgWx,blo,425,30OCT2019:14:00:00,29.3,14.31,16.9,16.7,17.5,15.8,476,1.7146,6.1,2.9,68,26,0.248,81,74,11.0,12.0,10.0,0.00433,0.00478,36.2,38.1,19,100,34.8,11.90,0.00,0.00,1.6384637
hly,AgWx,blo,425,30OCT2019:15:00:00,29.7,14.3,17.4,17.4,18.0,16.6,330,1.1881,6.1,2.9,55,29,0.232,75,67,9.4,11.0,8.3,0.00290,0.00333,36.3,38.1,19,100,33.1,11.91,0.00,0.00,1.1310484
hly,AgWx,blo,425,30OCT2019:16:00:00,28.5,13.88,16.6,16.7,17.7,13.6,147,0.5299,3.7,1.3,128,24,0.223,77,66,8.3,9.0,7.4,0.00101,0.00119,36.3,38.1,19,100,27.6,11.90,0.00,0.00,0.51222755
hly,AgWx,blo,425,30OCT2019:17:00:00,20.1,13.16,13.9,13.0,14.4,10.9,9,0.0337,5.0,2.6,253,14,0.203,82,59,6.9,8.8,2.4,-0.00012,-0.00007,36.3,38.1,19,100,16.6,11.92,0.01,0.00,0.0559997346
hly,AgWx,blo,425,30OCT2019:18:00:00,14.4,13.03,13.7,13.0,15.0,11.4,0,0.0001,6.8,3.8,293,13,0.174,67,56,2.8,4.1,1.5,-0.00001,0.00002,36.2,38.1,19,100,15.8,11.92,0.00,0.00,1E-6
hly,AgWx,blo,425,30OCT2019:19:00:00,13.0,12.98,12.6,12.2,13.5,11.1,0,0.0001,6.4,3.6,251,18,0.167,66,60,2.1,2.7,1.1,-0.00003,-0.00000,36.1,38.1,19,100,15.2,11.92,0.01,0.00,1E-6
hly,AgWx,blo,425,30OCT2019:20:00:00,11.9,12.92,12.2,11.4,12.3,9.9,0,0.0001,7.0,3.6,241,22,0.163,67,62,1.6,2.3,0.8,-0.00003,-0.00001,36.0,38.1,19,100,14.6,11.92,0.00,0.00,1E-6
hly,AgWx,blo,425,30OCT2019:21:00:00,11.5,12.9,10.7,10.3,11.2,9.5,0,0.0001,7.4,4.8,231,8.6,0.170,73,64,2.3,3.5,1.2,0.00000,0.00003,35.9,38.1,19,100,14.0,11.92,0.00,0.00,1E-6
hly,AgWx,blo,425,30OCT2019:22:00:00,10.8,12.87,10.5,9.6,10.3,8.7,0,0.0001,7.3,4.9,221,11,0.172,75,72,2.8,3.4,2.2,-0.00002,0.00000,35.7,38.1,19,100,13.4,11.92,0.00,0.00,1E-6
hly,AgWx,blo,425,30OCT2019:23:00:00,10.6,12.87,13.5,10.6,11.5,9.8,0,0.0000,5.6,4.0,205,14,0.173,72,67,2.6,2.9,2.1,-0.00001,-0.00000,35.6,38.1,19,100,14.3,11.92,0.00,0.00,2.5E-7
hly,AgWx,bloomfield,441,30OCT2019:00:00:00,33.6,12.2,28.1,28.1,29.6,26.2,6,0.0215,14.1,6.9,266,11,0.230,46,42,8.9,10.0,7.8,0.00082,0.00102,48.1,45.3,31,0,0.0,5.65,0.00,0.00,1E-6
hly,AgWx,bloomfield,441,30OCT2019:01:00:00,31.2,12.22,26.3,26.0,27.0,25.2,6,0.0209,15.0,9.4,267,11,0.196,45,40,5.7,8.0,4.9,0.00095,0.00111,47.5,45.0,31,0,0.0,5.65,0.00,0.00,1E-6
hly,AgWx,bloomfield,441,30OCT2019:02:00:00,29.5,12.17,24.9,24.6,25.5,23.2,6,0.0210,15.0,8.8,269,10,0.200,47,42,5.9,6.2,5.4,0.00083,0.00098,46.8,44.7,31,0,0.0,5.65,0.00,0.00,1E-6
hly,AgWx,bloomfield,441,30OCT2019:03:00:00,27.7,12.08,23.2,22.8,23.4,22.1,6,0.0212,12.4,7.8,270,10,0.196,48,46,5.7,6.3,4.8,0.00068,0.00082,46.2,44.3,31,0,0.0,5.65,0.00,0.00,1E-6
hly,AgWx,bloomfield,441,30OCT2019:04:00:00,26.1,12.12,21.4,21.1,22.3,20.0,6,0.0209,17.4,11.1,287,12,0.173,48,43,3.2,5.1,1.6,0.00079,0.00090,45.6,43.9,31,0,0.0,5.65,0.00,0.00,1E-6
hly,AgWx,bloomfield,441,30OCT2019:05:00:00,24.3,12.05,18.9,18.9,20.0,17.3,6,0.0206,14.6,8.7,266,11,0.161,52,42,1.4,2.9,0.1,0.00065,0.00076,45.0,43.5,31,0,0.0,5.65,0.00,0.00,1E-6
hly,AgWx,bloomfield,441,30OCT2019:06:00:00,22.3,12.03,17.1,16.8,18.2,16.2,9,0.0333,17.0,11.4,267,11,0.144,46,43,-0.9,0.1,-1.5,0.00069,0.00079,44.4,43.1,31,0,0.0,5.65,0.00,0.00,0.010160943
hly,AgWx,bloomfield,441,30OCT2019:07:00:00,21.5,12.32,17.1,16.5,17.6,15.9,105,0.3794,18.0,10.9,274,11,0.135,45,40,-2.1,-1.4,-3.0,0.00177,0.00309,43.9,42.7,31,0,0.0,5.65,0.00,0.00,0.29830102
hly,AgWx,bloomfield,441,30OCT2019:08:00:00,23.6,13.25,19.2,18.0,19.3,17.3,271,0.9744,18.4,12.4,275,11,0.137,40,39,-2.4,-1.6,-3.3,0.00334,0.00498,43.3,42.3,30,0,0.0,5.65,0.00,0.00,0.9907412
hly,AgWx,bloomfield,441,30OCT2019:09:00:00,27.0,14.62,21.4,20.6,22.1,18.8,434,1.5624,16.6,10.6,276,15,0.140,39,35,-1.6,-0.8,-2.3,0.00497,0.00677,42.9,41.9,30,0,0.0,5.65,0.00,0.00,1.6367905
hly,AgWx,bloomfield,441,30OCT2019:10:00:00,30.9,14.51,23.2,23.2,25.2,21.5,561,2.0187,15.8,9.7,274,16,0.143,36,32,-1.2,0.1,-2.2,0.00664,0.00866,42.7,41.6,30,0,0.0,5.65,0.00,0.00,2.1201103
hly,AgWx,bloomfield,441,30OCT2019:11:00:00,33.5,14.11,27.6,26.2,28.9,24.4,635,2.2873,18.9,10.0,269,17,0.151,33,29,-0.4,1.4,-1.7,0.00806,0.01044,42.8,41.4,30,0,0.0,5.65,0.00,0.00,2.3930378
hly,AgWx,bloomfield,441,30OCT2019:12:00:00,35.0,14.09,27.9,28.2,30.3,27.1,651,2.3430,18.4,11.8,266,16,0.150,30,28,0.1,1.9,-0.7,0.00871,0.01149,43.2,41.3,30,0,0.0,5.65,0.00,0.00,2.4331976
hly,AgWx,bloomfield,441,30OCT2019:13:00:00,36.1,14.04,31.9,30.5,32.3,27.9,603,2.1695,19.6,12.2,264,15,0.154,29,24,0.3,1.8,-1.0,0.00888,0.01197,44.0,41.4,30,0,0.0,5.65,0.00,0.00,2.2377338
hly,AgWx,bloomfield,441,30OCT2019:14:00:00,37.7,13.87,34.2,33.1,33.9,31.5,500,1.7989,19.3,12.3,268,15,0.148,25,22,-0.5,1.2,-1.4,0.00855,0.01199,44.8,41.7,30,0,0.0,5.65,0.00,0.00,1.8238118
hly,AgWx,bloomfield,441,30OCT2019:15:00:00,38.3,13.9,33.7,33.3,34.5,32.3,349,1.2578,19.9,12.5,271,14,0.142,23,21,-1.5,-0.0,-2.4,0.00702,0.01047,45.5,42.0,30,0,0.0,5.65,0.00,0.00,1.2274516
hly,AgWx,bloomfield,441,30OCT2019:16:00:00,37.2,14,32.4,32.0,32.8,31.1,177,0.6380,20.5,12.7,273,12,0.130,22,20,-3.2,-2.0,-4.5,0.00498,0.00826,45.7,42.2,30,0,0.0,5.65,0.00,0.00,0.52421192
hly,AgWx,bloomfield,441,30OCT2019:17:00:00,34.5,12.52,29.4,29.4,31.2,27.9,31,0.1104,19.8,12.0,271,11,0.126,24,21,-4.0,-3.7,-4.6,0.00241,0.00403,45.5,42.4,30,0,0.0,5.65,0.00,0.00,0.0468734473
hly,AgWx,bloomfield,441,30OCT2019:18:00:00,30.9,12.44,27.3,27.0,27.9,26.1,6,0.0208,14.5,9.3,252,11,0.128,27,24,-3.7,-3.2,-4.1,0.00112,0.00134,45.1,42.3,30,0,0.0,5.65,0.00,0.00,1E-6
hly,AgWx,bloomfield,441,30OCT2019:19:00:00,28.9,12.42,26.3,25.9,26.5,24.9,6,0.0207,14.2,8.7,252,9.8,0.130,29,26,-3.3,-3.0,-3.7,0.00101,0.00122,44.5,42.2,30,0,0.0,5.65,0.00,0.00,1E-6
hly,AgWx,bloomfield,441,30OCT2019:20:00:00,27.3,12.33,25.2,24.5,25.0,24.0,6,0.0208,11.3,7.5,241,9.9,0.131,30,29,-3.1,-2.9,-3.4,0.00084,0.00104,44.0,42.0,30,0,0.0,5.65,0.00,0.00,1E-6
hly,AgWx,bloomfield,441,30OCT2019:21:00:00,26.1,12.38,23.5,23.3,24.4,21.9,6,0.0209,11.6,6.4,221,11,0.130,33,29,-3.4,-2.9,-3.7,0.00070,0.00088,43.5,41.7,30,0,0.0,5.65,0.00,0.00,1E-6
hly,AgWx,bloomfield,441,30OCT2019:22:00:00,24.4,12.29,20.7,20.5,22.0,17.7,6,0.0210,7.5,3.5,262,27,0.136,42,33,-2.3,-1.7,-3.1,0.00019,0.00026,43.1,41.4,30,0,0.0,5.65,0.00,0.00,1E-6
hly,AgWx,bloomfield,441,30OCT2019:23:00:00,22.5,12.34,19.2,18.5,18.9,17.9,6,0.0051,2.9,1.6,117,24,0.138,41,39,-1.9,-1.5,-2.2,-0.00004,-0.00004,42.8,41.2,30,0,0.0,5.65,0.00,0.00,2.5E-7
hly,AgWx,bluebell,436,30OCT2019:00:00:00,10.6,12.17,7.0,6.8,7.7,5.1,0,0.0001,5.2,3.0,264,9.1,0.169,84,82,2.6,3.4,1.2,0.00008,0.00011,36.3,38.8,9,0,36.8,8.68,0.00,0.00,1E-6
hly,AgWx,bluebell,436,30OCT2019:01:00:00,7.7,12.13,1.1,1.0,5.2,-1.9,0,0.0001,4.7,3.0,306,8.0,0.130,86,81,-2.7,1.3,-5.6,0.00006,0.00008,36.3,38.7,9,0,36.5,8.68,0.00,0.00,1E-6
hly,AgWx,bluebell,436,30OCT2019:02:00:00,3.5,12.13,-2.5,-3.0,-0.9,-4.5,0,0.0001,5.2,2.0,248,9.3,0.108,86,83,-6.7,-4.2,-8.4,0.00003,0.00004,36.3,38.6,9,0,36.5,8.68,0.00,0.00,1E-6
hly,AgWx,bluebell,436,30OCT2019:03:00:00,0.7,12.11,-3.9,-5.1,-3.8,-6.0,0,0.0001,3.3,1.6,350,12,0.100,84,82,-9.0,-7.5,-10.1,0.00003,0.00004,36.1,38.5,9,0,36.5,8.68,0.00,0.00,1E-6
hly,AgWx,bluebell,436,30OCT2019:04:00:00,-0.2,12.09,-0.1,-1.4,0.0,-3.9,0,0.0001,5.8,2.8,15,17,0.119,84,82,-5.4,-4.0,-7.6,0.00005,0.00007,35.9,38.4,9,0,36.3,8.68,0.00,0.00,1E-6
hly,AgWx,bluebell,436,30OCT2019:05:00:00,1.3,12.08,1.5,0.4,1.1,-0.6,0,0.0001,6.1,3.8,21,11,0.128,83,82,-3.7,-2.9,-4.8,0.00008,0.00010,35.6,38.3,9,0,36.6,8.68,0.00,0.00,1E-6
hly,AgWx,bluebell,436,30OCT2019:06:00:00,1.8,12.07,0.4,-0.4,0.9,-1.4,0,0.0012,6.6,3.4,97,14,0.121,82,81,-4.7,-3.3,-5.9,0.00007,0.00009,35.3,38.1,9,0,36.1,8.68,0.00,0.00,0.001368942
hly,AgWx,bluebell,436,30OCT2019:07:00:00,2.4,12.07,3.1,1.6,4.6,-0.2,64,0.2298,6.4,3.5,12,13,0.138,83,81,-2.6,0.2,-4.4,0.00010,0.00019,35.0,37.9,9,0,36.8,8.68,0.00,0.00,0.154685662
hly,AgWx,bluebell,436,30OCT2019:08:00:00,9.6,12.3,8.7,7.4,9.3,4.5,222,0.7976,5.7,2.6,33,17,0.178,83,80,2.9,4.6,0.1,0.00121,0.00139,34.9,37.7,9,0,36.6,8.68,0.00,0.00,0.7431153
hly,AgWx,bluebell,436,30OCT2019:09:00:00,16.8,12.66,10.5,9.5,11.4,8.2,305,1.0972,5.8,2.0,133,24,0.183,81,71,3.5,6.0,1.9,0.00229,0.00255,34.9,37.6,9,0,36.7,8.68,0.00,0.00,1.3650552
hly,AgWx,bluebell,436,30OCT2019:10:00:00,19.8,14.17,11.5,10.9,12.3,9.4,493,1.7760,6.3,2.7,185,43,0.183,75,69,3.7,5.6,2.2,0.00400,0.00443,35.1,37.6,10,0,36.7,8.68,0.00,0.00,1.8473784
hly,AgWx,bluebell,436,30OCT2019:11:00:00,21.0,14.44,13.1,12.7,14.0,11.3,380,1.3693,5.9,2.4,78,31,0.195,75,70,5.5,7.0,4.0,0.00349,0.00388,35.5,37.6,9,0,36.4,8.68,0.00,0.00,2.1348174
hly,AgWx,bluebell,436,30OCT2019:12:00:00,21.8,13.95,13.4,13.3,14.3,12.2,337,1.2131,7.2,2.7,98,30,0.198,75,71,6.1,7.5,4.6,0.00322,0.00361,35.9,37.7,9,0,36.5,8.67,0.00,0.00,2.2068223
hly,AgWx,bluebell,436,30OCT2019:13:00:00,22.3,14.68,15.5,14.9,16.9,12.4,566,2.0384,6.7,2.7,115,45,0.200,72,63,6.1,8.2,4.5,0.00524,0.00580,36.3,37.8,10,0,36.5,8.67,0.00,0.00,2.0564243
hly,AgWx,bluebell,436,30OCT2019:14:00:00,25.6,14.21,16.8,16.4,17.5,14.9,500,1.7993,7.0,2.9,139,35,0.209,67,63,6.7,8.4,4.9,0.00467,0.00524,36.9,38.0,10,0,36.4,8.67,0.00,0.00,1.6943986
hly,AgWx,bluebell,436,30OCT2019:15:00:00,25.3,13.92,16.4,16.0,17.4,14.8,212,0.7643,7.1,3.2,115,25,0.216,71,66,7.5,8.8,6.2,0.00205,0.00244,37.1,38.2,9,0,36.5,8.66,0.00,0.00,1.1556847
hly,AgWx,bluebell,436,30OCT2019:16:00:00,24.9,13.3,17.0,16.4,17.4,15.4,174,0.6274,4.6,1.4,102,24,0.218,71,65,7.6,8.9,6.8,0.00107,0.00128,37.0,38.3,9,0,36.4,8.66,0.00,0.00,0.51058315
hly,AgWx,bluebell,436,30OCT2019:17:00:00,22.4,12.92,15.1,14.5,16.3,12.3,26,0.0924,3.2,0.6,74,9.7,0.217,81,69,7.7,8.3,6.8,-0.00046,-0.00056,36.7,38.3,9,0,36.4,8.67,0.01,0.00,0.0516714114
hly,AgWx,bluebell,436,30OCT2019:18:00:00,16.8,12.72,12.0,12.1,13.5,9.4,0,0.0002,2.0,0.1,201,8.1,0.211,85,79,7.7,8.6,5.3,-0.00047,-0.00073,36.4,38.3,9,0,36.3,8.67,0.00,0.00,1E-6
hly,AgWx,bluebell,436,30OCT2019:19:00:00,12.4,12.68,6.9,7.5,11.1,4.8,0,0.0001,2.6,0.8,334,1.5,0.176,88,82,4.2,7.4,1.8,-0.00032,-0.00047,36.0,38.2,9,0,36.2,8.67,0.00,0.00,1E-6
hly,AgWx,bluebell,436,30OCT2019:20:00:00,9.8,12.6,7.2,6.1,8.8,4.5,0,0.0001,4.7,1.7,337,9.9,0.176,88,86,3.0,5.7,1.1,-0.00022,-0.00027,35.6,38.0,9,0,36.9,8.67,0.00,0.00,1E-6
hly,AgWx,bluebell,436,30OCT2019:21:00:00,9.7,12.69,8.4,7.6,8.2,6.3,0,0.0001,3.3,1.5,250,14,0.182,87,84,4.1,4.9,2.6,-0.00024,-0.00031,35.3,37.9,9,0,36.0,8.68,0.00,0.00,1E-6
hly,AgWx,bluebell,436,30OCT2019:22:00:00,8.1,12.53,5.2,5.1,7.1,3.7,0,0.0001,2.1,0.6,343,1.9,0.164,87,85,1.7,3.7,0.4,-0.00031,-0.00044,35.1,37.7,9,0,36.4,8.68,0.00,0.00,1E-6
hly,AgWx,bluebell,436,30OCT2019:23:00:00,6.8,12.53,4.1,3.7,4.2,3.0,0,0.0000,0.8,0.3,342,0.3,0.150,86,85,0.4,1.0,-0.4,-0.00008,-0.00012,35.0,37.6,10,0,36.3,8.67,0.00,0.00,2.5E-7
hly,AgWx,bluecreek,403,30OCT2019:00:00:00,9.9,12.83,14.0,12.7,14.2,10.3,0,0.0000,6.8,2.0,146,38,0.151,60,50,-0.5,0.7,-3.6,-0.00016,-0.00019,32.7,35.5,46,.,.,8.92,0.00,0.00,1E-6
hly,AgWx,bluecreek,403,30OCT2019:01:00:00,10.2,12.81,10.5,10.5,14.3,6.7,0,0.0000,6.6,3.5,172,17,0.152,71,52,0.2,1.5,-1.2,-0.00001,0.00001,32.6,35.3,45,.,.,8.92,0.00,0.00,1E-6
hly,AgWx,bluecreek,403,30OCT2019:02:00:00,8.5,12.78,10.1,9.2,11.9,7.2,0,0.0000,6.4,3.4,257,12,0.157,72,63,0.8,2.3,-0.6,-0.00008,-0.00009,32.5,35.3,45,.,.,8.92,0.00,0.00,1E-6
hly,AgWx,bluecreek,403,30OCT2019:03:00:00,8.9,12.74,9.9,9.2,11.0,6.7,0,0.0000,8.2,4.6,232,17,0.156,73,64,0.6,1.6,-1.1,-0.00001,0.00001,32.3,35.2,45,.,.,8.92,0.00,0.00,1E-6
hly,AgWx,bluecreek,403,30OCT2019:04:00:00,7.2,12.68,8.9,8.1,9.9,4.8,0,0.0000,4.3,1.5,123,35,0.155,76,66,0.5,1.8,-2.1,-0.00026,-0.00034,32.1,35.1,46,.,.,8.92,0.00,0.00,1E-6
hly,AgWx,bluecreek,403,30OCT2019:05:00:00,6.5,12.6,8.8,7.6,9.5,6.1,0,0.0000,5.8,2.9,167,27,0.151,73,66,-0.2,1.2,-1.2,-0.00012,-0.00013,31.9,35.0,45,.,.,8.92,0.00,0.00,1E-6
hly,AgWx,bluecreek,403,30OCT2019:06:00:00,6.3,12.56,9.5,8.5,9.3,6.9,0,0.0001,4.6,2.5,266,5.2,0.155,72,67,0.5,1.4,-0.3,-0.00015,-0.00017,31.7,35.0,46,.,.,8.92,0.00,0.00,1E-6
hly,AgWx,bluecreek,403,30OCT2019:07:00:00,6.4,12.56,9.3,8.3,10.4,6.5,34,0.1242,5.2,2.2,343,7.4,0.157,74,66,0.6,2.2,-1.2,-0.00012,-0.00006,31.5,34.7,45,.,.,8.92,0.00,0.00,0.082078073
hly,AgWx,bluecreek,403,30OCT2019:08:00:00,11.8,15,12.9,11.4,14.3,9.6,186,0.6691,7.8,3.3,336,4.3,0.181,74,65,3.4,6.0,1.5,0.00116,0.00144,31.3,34.8,46,.,.,8.91,0.00,0.00,0.57900716
hly,AgWx,bluecreek,403,30OCT2019:09:00:00,19.9,14.69,17.2,15.5,17.8,13.8,355,1.2765,5.4,1.5,244,29,0.181,66,57,3.9,5.6,2.1,0.00304,0.00341,31.1,34.5,45,.,.,8.91,0.00,0.00,1.1908233
hly,AgWx,bluecreek,403,30OCT2019:10:00:00,24.1,14.63,19.4,18.8,20.7,16.3,494,1.7797,9.7,4.8,169,18,0.186,62,48,4.4,7.6,1.3,0.00482,0.00573,31.2,34.6,45,.,.,8.92,0.00,0.00,1.6825388